Miscellaneous Local Product
Issued by NWS Hastings, NE

Home | Current Version | Previous Version | Graphics & Text | Print | Product List | Glossary On
Versions: 1 2 3 4 5 6 7 8 9 10 11 12 13 14 15 16 17 18 19 20 21 22 23 24 25 26 27 28 29 30 31 32 33 34 35 36 37 38 39 40 41 42 43 44 45 46 47 48 49 50
000
AXUS43 KGID 020202
MISGRI

GID CWA HOURLY WEATHER ROUNDUP
NATIONAL WEATHER SERVICE HASTINGS NE
900 PM CDT FRI MAY 01 2015

NOTE: "FAIR" INDICATES FEW OR NO CLOUDS BELOW 12,000 FEET WITH NO
SIGNIFICANT WEATHER AND/OR OBSTRUCTIONS TO VISIBILITY.

...SOUTH CENTRAL NEBRASKA...

CITY           SKY/WX    TMP DP  RH WIND       PRES   REMARKS
GRAND ISLAND   PTCLDY    65  49  56 NE3       29.98R
HASTINGS       PTCLDY    69  49  48 E5        29.97R
KEARNEY        MOCLDY    68  46  45 NE6       29.97F
ORD            PTCLDY    63  45  51 CALM      29.97S
YORK           PTCLDY    72  48  43 CALM      29.98R
AURORA         MOCLDY    69  47  44 N3        29.97S
LEXINGTON      MOCLDY    67  53  60 E6        29.98F
HOLDREGE       MOCLDY    69  48  46 E5        29.98S
HEBRON         MOCLDY    69  48  46 S9        29.97S

...NEBRASKA PANHANDLE...

CITY           SKY/WX    TMP DP  RH WIND       PRES   REMARKS
CHADRON        CLEAR     63  44  50 S9        29.94S
ALLIANCE       PTCLDY    57  47  69 SE8       29.98F
SCOTTSBLUFF    PTCLDY    63  49  60 SW7       29.98S
SIDNEY         CLOUDY    60  51  72 W6        30.02R

...WESTERN AND NORTH CENTRAL NEBRASKA...

CITY           SKY/WX    TMP DP  RH WIND       PRES   REMARKS
VALENTINE      CLEAR     62  41  46 E6        29.97R
AINSWORTH      CLEAR     64  41  44 E3        29.98S
ONEILL         CLEAR     67  47  48 SE5       29.98S
BROKEN BOW     MOCLDY    64  48  56 CALM      29.98F
IMPERIAL       CLOUDY    66  49  54 S6        29.99S
NORTH PLATTE   MOCLDY    62  50  64 E7        29.97F
MCCOOK         CLOUDY    70  49  47 SE5       29.96F

...EASTERN NEBRASKA...

CITY           SKY/WX    TMP DP  RH WIND       PRES   REMARKS
NORFOLK        CLEAR     61  48  62 E5        29.98R
SO SIOUX CITY  CLEAR     57  49  74 SE5       30.00R
TEKAMAH        CLEAR     56  49  77 SE8       30.00R
COLUMBUS       CLEAR     63  45  51 NE8       30.00R
ALBION         CLEAR     66  44  45 NE7       29.98R
OMAHA EPPLEY   MOCLDY    63  45  51 SE8       30.00S
OFFUTT AFB     PTCLDY    63  44  50 E6        30.00R
MILLARD        CLOUDY    66  46  47 SE6       29.99S
LINCOLN        CLEAR     62  48  60 S9        29.98R
NEBRASKA CITY  PTCLDY    64  37  37 SE5       30.01S
BEATRICE       PTCLDY    67  47  48 S8        29.99S
FALLS CITY     CLOUDY    66  42  41 SE10      30.01R

...NORTHERN KANSAS...

CITY           SKY/WX    TMP DP  RH WIND       PRES   REMARKS
GOODLAND       CLOUDY    67  48  50 S7        30.01S
HILL CITY      CLOUDY    71  47  42 S8        29.97S
NORTON         PTCLDY    68  46  45 E6        29.96S
PHILLIPSBURG   CLEAR     72  48  43 SE5       29.97S
SMITH CENTER   CLOUDY    66  48  52 SE9       29.98S
BELOIT         CLEAR     68  50  52 SE8       29.97S
HAYS           CLOUDY    66  45  45 S8        30.00R
RUSSELL        CLOUDY    68  51  54 S12       29.98R
CONCORDIA      PTCLDY    65  49  56 S9        29.99S
SALINA         MOCLDY    68  49  50 S10       30.00S
TOPEKA         PTCLDY    67  45  45 S3        30.03S



USA.gov is the U.S. government's official web portal to all federal, state and local government web resources and services.